1494014400.77,46758,15.63,73634.3,-0.59,-2.43,-2.19,0,*6B
1494014401.98,46759,15.69,73640.3,-0.61,-2.51,-2.23,0,*6B
1494014403.23,46760,15.69,73644.8,-0.61,-2.47,-2.11,0,*67
1494014404.47,46761,15.69,73644.0,-0.61,-2.51,-2.11,0,*61
1494014405.71,46762,15.69,73644.0,-0.61,-2.47,-2.11,0,*65
1494014406.92,46763,15.69,73644.0,-0.61,-2.35,-2.11,0,*61
1494014408.14,46764,15.63,73636.5,-0.61,-2.23,-2.11,0,*61
1494014409.35,46765,15.69,73638.0,-0.61,-2.19,-2.07,0,*6E
1494014410.57,46766,15.69,73636.8,-0.61,-2.27,-2.07,0,*60
1494014411.78,46767,15.63,73636.3,-0.61,-2.27,-2.11,0,*66
1494014412.96,46768,15.69,73640.3,-0.61,-2.39,-2.19,0,*6E
1494014414.18,46769,15.69,73642.3,-0.61,-2.35,-2.11,0,*6B
1494014415.39,46770,15.63,73640.5,-0.63,-2.27,-2.19,0,*6A
1494014416.58,46771,15.69,73640.5,-0.61,-2.35,-2.19,0,*6A
1494014417.76,46772,15.69,73642.5,-0.61,-2.35,-2.27,0,*64
1494014418.98,46773,15.63,73640.0,-0.61,-2.47,-2.39,0,*6F
1494014420.19,46774,15.69,73642.8,-0.61,-2.51,-2.39,0,*6F
1494014421.44,46775,15.69,73642.5,-0.61,-2.51,-2.51,0,*60
1494014422.68,46776,15.69,73644.3,-0.61,-2.63,-2.59,0,*6A
1494014423.92,46777,15.69,73642.5,-0.61,-2.75,-2.75,0,*62
1494014425.16,46778,15.63,73636.5,-0.61,-2.75,-2.75,0,*6D
1494014426.38,46779,15.69,73640.8,-0.59,-2.79,-2.83,0,*62
1494014427.6,46780,15.69,73640.8,-0.59,-2.95,-2.83,0,*66
1494014428.8,46781,15.69,73640.3,-0.61,-2.95,-2.95,0,*6B
1494014429.99,46782,15.63,73638.5,-0.61,-2.99,-2.95,0,*64
1494014431.2,46783,15.63,73634.8,-0.59,-2.91,-2.91,0,*62
1494014432.4,46784,15.69,73638.8,-0.61,-2.95,-2.95,0,*6E
1494014433.6,46785,15.69,73636.0,-0.61,-2.95,-2.83,0,*68
1494014434.84,46786,15.69,73636.8,-0.63,-2.83,-2.75,0,*67
1494014436.08,46787,15.69,73638.5,-0.61,-2.75,-2.63,0,*6A
1494014437.32,46788,15.63,73638.3,-0.61,-2.71,-2.63,0,*61
1494014438.6,46789,15.69,73638.3,-0.63,-2.63,-2.71,0,*62
1494014439.84,46790,15.69,73638.8,-0.61,-2.71,-2.75,0,*6F
1494014441.08,46791,15.69,73642.0,-0.59,-2.71,-2.83,0,*6C
1494014442.27,46792,15.69,73642.5,-0.61,-2.87,-2.87,0,*69
1494014443.51,46793,15.63,73642.3,-0.61,-2.75,-2.71,0,*6C
1494014444.75,46794,15.69,73642.8,-0.61,-2.71,-2.71,0,*6F
1494014446.02,46795,15.69,73644.0,-0.63,-2.63,-2.59,0,*65
1494014447.27,46796,15.63,73642.0,-0.61,-2.63,-2.47,0,*6B
1494014448.52,46797,15.63,73640.3,-0.61,-2.63,-2.51,0,*6D
1494014449.76,46798,15.69,73642.0,-0.61,-2.63,-2.63,0,*63
1494014451.0,46799,15.69,73642.8,-0.61,-2.71,-2.59,0,*68
1494014452.24,46800,15.69,73638.0,-0.63,-2.83,-2.63,0,*61
1494014453.46,46801,15.69,73636.3,-0.61,-2.87,-2.75,0,*61
1494014454.65,46802,15.69,73636.8,-0.61,-2.99,-2.87,0,*60
1494014455.84,46803,15.63,73640.5,-0.61,-3.15,-2.87,0,*64
1494014457.03,46804,15.69,73640.5,-0.61,-3.27,-2.87,0,*62
1494014458.24,46805,15.69,73640.3,-0.63,-3.23,-2.87,0,*65
1494014459.43,46806,15.69,73642.3,-0.61,-3.11,-2.83,0,*61
1494014460.65,46807,15.63,73636.0,-0.61,-3.11,-2.71,0,*6D
1494014461.87,46808,15.63,73638.3,-0.61,-2.99,-2.71,0,*63
1494014463.08,46809,15.69,73636.8,-0.61,-2.87,-2.63,0,*6E
1494014464.32,46810,15.69,73636.8,-0.61,-2.71,-2.59,0,*66
1494014465.56,46811,15.69,73642.0,-0.61,-2.59,-2.51,0,*65
1494014466.78,46812,15.69,73640.3,-0.59,-2.43,-2.43,0,*65
1494014467.99,46813,15.69,73638.5,-0.61,-2.35,-2.47,0,*6A
1494014469.17,46814,15.69,73638.5,-0.61,-2.27,-2.27,0,*68
1494014470.39,46815,15.69,73636.8,-0.63,-2.23,-2.23,0,*6B
1494014471.57,46816,15.69,73636.8,-0.61,-2.27,-2.27,0,*6A
1494014472.76,46817,15.69,73636.8,-0.61,-2.27,-2.23,0,*6F
1494014473.98,46818,15.69,73636.8,-0.59,-2.31,-2.19,0,*65
1494014475.17,46819,15.63,73636.8,-0.61,-2.39,-2.35,0,*69
1494014476.41,46820,15.63,73640.0,-0.61,-2.51,-2.47,0,*68
1494014477.62,46821,15.63,73634.3,-0.61,-2.59,-2.39,0,*68
1494014478.86,46822,15.69,73640.3,-0.61,-2.51,-2.59,0,*65
1494014480.13,46823,15.63,73638.3,-0.59,-2.47,-2.55,0,*64
1494014481.37,46824,15.69,73638.5,-0.61,-2.51,-2.59,0,*63
1494014482.59,46825,15.63,73636.3,-0.59,-2.43,-2.43,0,*61
1494014483.77,46826,15.63,73638.0,-0.61,-2.35,-2.35,0,*69
1494014484.96,46827,15.69,73646.3,-0.61,-2.35,-2.35,0,*68
1494014486.15,46828,15.69,73640.3,-0.61,-2.35,-2.23,0,*60
1494014487.33,46829,15.69,73640.3,-0.61,-2.27,-2.27,0,*66
1494014488.52,46830,15.63,73640.8,-0.61,-2.39,-2.23,0,*65
1494014489.74,46831,15.69,73640.5,-0.59,-2.31,-2.19,0,*6E
1494014490.96,46832,15.69,73640.0,-0.59,-2.35,-2.19,0,*69
1494014492.18,46833,15.63,73636.8,-0.59,-2.43,-2.23,0,*60
1494014493.42,46834,15.69,73642.8,-0.59,-2.59,-2.35,0,*6B
1494014494.66,46835,15.69,73642.3,-0.59,-2.71,-2.43,0,*61
1494014495.9,46836,15.63,73642.3,-0.59,-2.83,-2.59,0,*64
1494014497.15,46837,15.69,73642.3,-0.59,-2.95,-2.71,0,*68
1494014498.37,46838,15.63,73638.8,-0.59,-3.07,-2.83,0,*60
1494014499.56,46839,15.69,73642.3,-0.57,-3.19,-3.07,0,*6D
1494014500.75,46840,15.63,73642.3,-0.57,-3.31,-3.31,0,*6C
1494014501.99,46841,15.63,73638.8,-0.59,-3.35,-3.43,0,*62
1494014503.23,46842,15.69,73642.3,-0.59,-3.35,-3.43,0,*61
1494014504.45,46843,15.63,73640.8,-0.59,-3.19,-3.31,0,*6B
1494014505.66,46844,15.69,73640.8,-0.59,-3.19,-3.19,0,*66
1494014506.88,46845,15.63,73638.0,-0.59,-2.99,-3.11,0,*66
1494014508.09,46846,15.63,73640.8,-0.59,-2.91,-2.91,0,*64
1494014509.3,46847,15.63,73636.8,-0.59,-2.91,-2.91,0,*65
1494014510.51,46848,15.63,73638.0,-0.59,-2.79,-2.79,0,*6A
1494014511.76,46849,15.63,73640.8,-0.59,-2.79,-2.71,0,*63
1494014513.03,46850,15.63,73642.0,-0.59,-2.71,-2.71,0,*63
1494014514.28,46851,15.63,73642.8,-0.59,-2.83,-2.71,0,*6F
1494014515.52,46852,15.63,73636.5,-0.59,-2.79,-2.67,0,*6E
1494014516.79,46853,15.63,73638.5,-0.59,-2.71,-2.59,0,*6A
1494014518.03,46854,15.69,73642.0,-0.61,-2.75,-2.63,0,*6B
1494014519.25,46855,15.69,73646.8,-0.61,-2.83,-2.63,0,*63
1494014520.46,46856,15.69,73646.3,-0.61,-2.87,-2.71,0,*67
1494014521.68,46857,15.63,73646.3,-0.59,-2.99,-2.83,0,*6F
1494014522.9,46858,15.63,73642.0,-0.59,-3.19,-2.95,0,*6E
1494014524.12,46859,15.63,73644.5,-0.59,-3.31,-3.11,0,*68
1494014525.34,46860,15.63,73644.0,-0.59,-3.31,-3.23,0,*63
1494014526.6,46861,15.69,73648.0,-0.59,-3.43,-3.43,0,*61
1494014527.84,46862,15.69,73646.8,-0.59,-3.43,-3.35,0,*63
1494014529.07,46863,15.63,73644.0,-0.59,-3.31,-3.35,0,*67
1494014530.28,46864,15.63,73640.8,-0.59,-3.11,-3.11,0,*64
1494014531.5,46865,15.63,73646.3,-0.59,-3.07,-2.99,0,*63
1494014532.72,46866,15.63,73648.0,-0.59,-2.99,-2.91,0,*6E
1494014533.93,46867,15.63,73648.8,-0.59,-2.91,-2.83,0,*64
1494014535.18,46868,15.63,73642.0,-0.59,-2.79,-2.67,0,*67
1494014536.44,46869,15.63,73640.8,-0.59,-2.59,-2.59,0,*69
1494014537.69,46870,15.63,73638.8,-0.57,-2.47,-2.55,0,*6C
1494014538.91,46871,15.63,73642.8,-0.59,-2.31,-2.43,0,*65
1494014540.09,46872,15.63,73640.0,-0.57,-2.19,-2.35,0,*63
1494014541.34,46873,15.63,73638.5,-0.59,-2.07,-2.23,0,*64
1494014542.61,46874,15.63,73642.0,-0.59,-1.95,-2.07,0,*6D
1494014543.88,46875,15.63,73640.8,-0.59,-1.91,-2.03,0,*6C
1494014545.12,46876,15.63,73638.3,-0.57,-1.83,-1.95,0,*6E
1494014546.39,46877,15.63,73640.3,-0.59,-1.83,-1.91,0,*65
1494014547.61,46878,15.63,73638.5,-0.57,-1.71,-1.83,0,*6A
1494014548.83,46879,15.63,73642.0,-0.59,-1.71,-1.79,0,*60
1494014550.05,46880,15.63,73642.3,-0.59,-1.67,-1.71,0,*69
1494014551.25,46881,15.63,73646.3,-0.57,-1.67,-1.71,0,*66
1494014552.46,46882,15.63,73644.0,-0.59,-1.59,-1.67,0,*61
1494014553.68,46883,15.63,73646.3,-0.59,-1.55,-1.55,0,*6D
1494014554.92,46884,15.63,73646.5,-0.59,-1.47,-1.59,0,*65
1494014556.11,46885,15.63,73644.0,-0.57,-1.55,-1.67,0,*64
1494014557.32,46886,15.63,73642.5,-0.59,-1.55,-1.59,0,*64
1494014558.54,46887,15.63,73640.5,-0.59,-1.67,-1.79,0,*66
1494014559.76,46888,15.63,73636.5,-0.57,-1.79,-1.91,0,*6E
1494014561.0,46889,15.63,73638.3,-0.57,-1.83,-1.83,0,*69
1494014562.21,46890,15.63,73640.8,-0.57,-1.79,-1.83,0,*64
1494014563.43,46891,15.63,73642.5,-0.57,-1.79,-1.83,0,*65
1494014564.65,46892,15.63,73638.0,-0.59,-1.79,-1.71,0,*65
1494014565.87,46893,15.63,73638.8,-0.59,-1.71,-1.79,0,*64
1494014567.09,46894,15.63,73642.3,-0.59,-1.79,-1.71,0,*63
1494014568.31,46895,15.63,73640.8,-0.59,-1.79,-1.79,0,*6A
1494014569.54,46896,15.63,73636.3,-0.59,-1.71,-1.71,0,*69
1494014570.75,46897,15.63,73636.3,-0.59,-1.67,-1.59,0,*65
1494014571.98,46898,15.63,73642.8,-0.59,-1.67,-1.67,0,*67
1494014573.19,46899,15.63,73644.0,-0.59,-1.67,-1.59,0,*6B
1494014574.38,46900,15.63,73646.3,-0.57,-1.59,-1.67,0,*64
1494014575.6,46901,15.63,73648.3,-0.59,-1.67,-1.67,0,*66
1494014576.78,46902,15.63,73644.8,-0.57,-1.67,-1.59,0,*66
1494014577.97,46903,15.63,73648.5,-0.57,-1.67,-1.67,0,*6A
1494014579.2,46904,15.63,73646.3,-0.59,-1.67,-1.67,0,*63
1494014580.38,46905,15.63,73642.5,-0.57,-1.67,-1.59,0,*61
1494014581.6,46906,15.63,73636.3,-0.59,-1.67,-1.67,0,*61
1494014582.82,46907,15.63,73634.3,-0.59,-1.67,-1.67,0,*60
1494014584.04,46908,15.63,73628.5,-0.59,-1.79,-1.79,0,*6F
1494014585.31,46909,15.63,73642.0,-0.59,-1.83,-1.91,0,*6D
1494014586.57,46910,15.63,73642.8,-0.59,-1.91,-1.95,0,*62
1494014587.84,46911,15.63,73636.5,-0.59,-1.91,-2.03,0,*6F
1494014589.11,46912,15.63,73642.5,-0.59,-1.83,-1.95,0,*63
1494014590.37,46913,15.63,73644.5,-0.59,-1.91,-1.95,0,*61
1494014591.63,46914,15.63,73646.0,-0.59,-1.91,-1.95,0,*66
1494014592.9,46915,15.63,73644.5,-0.59,-1.91,-1.91,0,*63
1494014594.16,46916,15.63,73642.3,-0.59,-1.91,-1.91,0,*60
1494014595.43,46917,15.63,73648.3,-0.59,-1.91,-1.83,0,*62
1494014596.67,46918,15.63,73652.3,-0.61,-1.87,-1.87,0,*65
1494014597.91,46919,15.63,73648.3,-0.61,-1.87,-1.87,0,*64
1494014599.15,46920,15.63,73652.3,-0.61,-1.87,-1.87,0,*6E
1494014600.39,46921,15.63,73650.8,-0.61,-1.95,-1.87,0,*6C
1494014601.63,46922,15.63,73644.5,-0.63,-1.83,-1.75,0,*67
1494014602.83,46923,15.63,73644.0,-0.61,-1.75,-1.71,0,*69
1494014604.05,46924,15.63,73644.8,-0.61,-1.71,-1.83,0,*67
1494014605.23,46925,15.63,73644.8,-0.61,-1.63,-1.75,0,*6C
1494014606.43,46926,15.63,73644.3,-0.61,-1.71,-1.63,0,*6B
1494014607.61,46927,15.63,73646.8,-0.61,-1.59,-1.63,0,*60
1494014608.79,46928,15.69,73652.5,-0.61,-1.59,-1.51,0,*6E
1494014610.01,46929,15.63,73650.0,-0.63,-1.51,-1.51,0,*65
1494014611.22,46930,15.63,73648.8,-0.61,-1.47,-1.51,0,*68
1494014612.41,46931,15.63,73648.8,-0.61,-1.59,-1.51,0,*66
1494014613.59,46932,15.63,73650.3,-0.61,-1.51,-1.59,0,*65
1494014614.77,46933,15.63,73648.0,-0.61,-1.51,-1.51,0,*6C
1494014615.96,46934,15.63,73646.8,-0.61,-1.51,-1.51,0,*6B
1494014617.17,46935,15.63,73646.8,-0.63,-1.59,-1.51,0,*60
1494014618.35,46936,15.63,73644.8,-0.61,-1.51,-1.51,0,*69
1494014619.53,46937,15.63,73646.8,-0.61,-1.59,-1.59,0,*68
1494014620.71,46938,15.63,73646.5,-0.61,-1.59,-1.59,0,*67
1494014621.89,46939,15.63,73650.3,-0.61,-1.59,-1.59,0,*66
1494014623.07,46940,15.63,73650.8,-0.61,-1.51,-1.59,0,*60
1494014624.26,46941,15.63,73646.0,-0.61,-1.51,-1.51,0,*69
1494014625.47,46942,15.63,73642.3,-0.61,-1.51,-1.47,0,*6D
1494014626.65,46943,15.63,73642.5,-0.61,-1.51,-1.59,0,*63
1494014627.83,46944,15.63,73642.3,-0.61,-1.51,-1.59,0,*64
1494014629.02,46945,15.63,73644.8,-0.61,-1.51,-1.51,0,*6D
1494014630.23,46946,15.63,73644.3,-0.61,-1.47,-1.59,0,*61
1494014631.5,46947,15.63,73640.0,-0.59,-1.47,-1.43,0,*60
1494014632.69,46948,15.63,73640.8,-0.57,-1.55,-1.55,0,*65
1494014633.93,46949,15.63,73642.3,-0.59,-1.55,-1.47,0,*69
1494014635.14,46950,15.63,73636.8,-0.57,-1.55,-1.47,0,*6F
1494014636.42,46951,15.63,73640.3,-0.59,-1.47,-1.47,0,*63
1494014637.66,46952,15.63,73642.8,-0.57,-1.43,-1.43,0,*6E
1494014638.93,46953,15.63,73638.3,-0.59,-1.35,-1.35,0,*61
1494014640.2,46954,15.63,73634.8,-0.59,-1.43,-1.43,0,*66
1494014641.47,46955,15.63,73636.5,-0.59,-1.43,-1.35,0,*66
1494014642.74,46956,15.63,73640.8,-0.59,-1.35,-1.35,0,*64
1494014643.98,46957,15.63,73646.3,-0.57,-1.35,-1.47,0,*6E
1494014645.19,46958,15.63,73642.5,-0.59,-1.55,-1.55,0,*6A
1494014646.42,46959,15.63,73646.8,-0.59,-1.71,-1.79,0,*63
1494014647.64,46960,15.63,73646.3,-0.59,-1.79,-1.67,0,*6E
1494014648.85,46961,15.63,73650.0,-0.59,-1.79,-1.59,0,*62
1494014650.07,46962,15.63,73652.3,-0.57,-1.83,-1.59,0,*6A
1494014651.29,46963,15.63,73650.0,-0.57,-1.91,-1.67,0,*65
1494014652.49,46964,15.63,73648.0,-0.57,-1.91,-1.59,0,*6F
1494014653.71,46965,15.63,73652.0,-0.57,-1.91,-1.67,0,*63
1494014654.92,46966,15.63,73648.0,-0.55,-1.79,-1.63,0,*60
1494014656.13,46967,15.63,73648.0,-0.55,-1.79,-1.55,0,*64
1494014657.32,46968,15.63,73644.5,-0.53,-1.63,-1.51,0,*62
1494014658.53,46969,15.63,73640.8,-0.55,-1.63,-1.51,0,*65
1494014659.77,46970,15.69,73640.5,-0.55,-1.55,-1.39,0,*66
1494014660.98,46971,15.63,73640.5,-0.53,-1.51,-1.43,0,*68
1494014662.19,46972,15.63,73644.8,-0.53,-1.51,-1.39,0,*66
1494014663.37,46973,15.63,73640.0,-0.53,-1.55,-1.51,0,*6D
1494014664.56,46974,15.63,73640.0,-0.53,-1.55,-1.55,0,*6E
1494014665.75,46975,15.63,73640.0,-0.53,-1.63,-1.63,0,*6F
1494014666.93,46976,15.63,73642.5,-0.53,-1.67,-1.75,0,*6F
1494014668.17,46977,15.63,73642.3,-0.53,-1.87,-1.87,0,*6D
1494014669.41,46978,15.63,73642.3,-0.53,-2.03,-1.91,0,*6A
1494014670.66,46979,15.63,73642.5,-0.51,-1.87,-1.75,0,*6C
1494014671.87,46980,15.63,73634.3,-0.53,-1.87,-1.79,0,*64
1494014673.09,46981,15.63,73632.0,-0.53,-1.87,-1.75,0,*69
1494014674.3,46982,15.69,73638.5,-0.53,-1.87,-1.75,0,*6A
1494014675.52,46983,15.63,73634.8,-0.53,-1.99,-1.79,0,*68
1494014676.77,46984,15.63,73630.8,-0.53,-1.99,-1.87,0,*6E
1494014678.01,46985,15.63,73634.3,-0.53,-1.99,-1.87,0,*6F
1494014679.28,46986,15.63,73632.8,-0.51,-2.07,-1.95,0,*69
1494014680.51,46987,15.63,73636.5,-0.51,-2.15,-1.95,0,*6B
1494014681.75,46988,15.63,73638.3,-0.51,-2.39,-2.07,0,*62
1494014683.02,46989,15.63,73642.3,-0.51,-2.63,-2.11,0,*6B
1494014684.26,46990,15.63,73638.5,-0.51,-2.75,-2.15,0,*60
1494014685.48,46991,15.63,73642.5,-0.51,-2.83,-2.23,0,*6D
1494014686.69,46992,15.63,73640.3,-0.51,-2.87,-2.27,0,*6E
1494014687.91,46993,15.63,73642.5,-0.51,-3.11,-2.35,0,*62
1494014689.18,46994,15.63,73644.3,-0.51,-3.47,-2.47,0,*63
1494014690.44,46995,15.63,73644.8,-0.51,-3.79,-2.71,0,*6A
1494014691.69,46996,15.63,73640.0,-0.51,-3.75,-2.75,0,*61
1494014692.97,46997,15.63,73644.0,-0.51,-3.51,-2.63,0,*61
1494014694.22,46998,15.63,73646.5,-0.51,-3.35,-2.51,0,*6D
1494014695.44,46999,15.63,73644.3,-0.51,-3.27,-2.39,0,*61
1494014696.66,47000,15.63,73644.8,-0.51,-3.15,-2.35,0,*64
1494014697.87,47001,15.63,73646.3,-0.51,-3.03,-2.27,0,*61
1494014699.14,47002,15.63,73644.5,-0.51,-2.75,-2.11,0,*67
1494014700.39,47003,15.63,73640.8,-0.49,-2.51,-1.99,0,*6A
1494014701.6,47004,15.63,73642.0,-0.49,-2.35,-1.95,0,*63
1494014702.84,47005,15.63,73642.0,-0.51,-2.27,-1.83,0,*6F
1494014704.09,47006,15.63,73642.0,-0.51,-1.99,-1.63,0,*64
1494014705.31,47007,15.69,73646.8,-0.49,-1.87,-1.63,0,*63
1494014706.53,47008,15.63,73642.5,-0.49,-1.87,-1.63,0,*6C
1494014707.75,47009,15.63,73638.3,-0.49,-1.87,-1.63,0,*6D
1494014708.95,47010,15.63,73634.5,-0.47,-1.59,-1.63,0,*68
1494014710.15,47011,15.63,73630.3,-0.49,-1.71,-1.51,0,*6C
1494014711.34,47012,15.63,73632.0,-0.49,-1.63,-1.51,0,*6C
1494014712.53,47013,15.63,73638.5,-0.49,-1.63,-1.59,0,*65
1494014713.73,47014,15.63,73634.5,-0.49,-1.71,-1.63,0,*68
1494014714.93,47015,15.63,73632.8,-0.49,-1.71,-1.59,0,*60
1494014716.12,47016,15.63,73632.0,-0.49,-1.75,-1.71,0,*6D
1494014717.35,47017,15.63,73630.8,-0.49,-1.83,-1.71,0,*65
1494014718.59,47018,15.63,73632.0,-0.49,-1.95,-1.83,0,*60
1494014719.83,47019,15.63,73636.3,-0.49,-1.95,-1.87,0,*65
1494014721.07,47020,15.63,73632.5,-0.49,-2.07,-1.95,0,*64
1494014722.26,47021,15.63,73638.0,-0.49,-2.27,-2.15,0,*6C
1494014723.45,47022,15.63,73636.5,-0.49,-2.39,-2.23,0,*65
1494014724.68,47023,15.63,73632.5,-0.49,-2.63,-2.39,0,*60
1494014725.92,47024,15.63,73638.0,-0.49,-2.75,-2.47,0,*69
1494014727.16,47025,15.63,73634.3,-0.47,-2.79,-2.59,0,*65
1494014728.4,47026,15.63,73636.8,-0.47,-2.79,-2.55,0,*6A
1494014729.67,47027,15.63,73628.8,-0.47,-2.67,-2.47,0,*67
1494014730.91,47028,15.63,73634.5,-0.49,-2.71,-2.47,0,*61
1494014732.13,47029,15.63,73634.3,-0.49,-2.59,-2.35,0,*6F
1494014733.34,47030,15.63,73634.3,-0.51,-2.39,-2.23,0,*6F
1494014734.53,47031,15.63,73636.0,-0.49,-2.35,-2.27,0,*6F
1494014735.72,47032,15.63,73638.8,-0.49,-2.39,-2.39,0,*6F
1494014736.91,47033,15.63,73638.8,-0.49,-2.39,-2.39,0,*6E
1494014738.13,47034,15.63,73634.8,-0.49,-2.47,-2.39,0,*60
1494014739.4,47035,15.63,73638.5,-0.51,-2.51,-2.51,0,*61
1494014740.68,47036,15.63,73634.5,-0.51,-2.47,-2.47,0,*62
1494014741.93,47037,15.69,73636.0,-0.49,-2.47,-2.47,0,*6A
1494014743.14,47038,15.63,73634.5,-0.51,-2.35,-2.35,0,*6C
1494014744.33,47039,15.63,73634.5,-0.49,-2.27,-2.35,0,*67
1494014745.54,47040,15.63,73638.0,-0.51,-2.27,-2.27,0,*63
1494014746.76,47041,15.63,73638.3,-0.51,-2.39,-2.35,0,*6E
1494014748.0,47042,15.63,73640.8,-0.51,-2.51,-2.39,0,*6F
1494014749.22,47043,15.63,73644.0,-0.49,-2.63,-2.39,0,*66
1494014750.46,47044,15.63,73644.5,-0.49,-2.75,-2.59,0,*60
1494014751.71,47045,15.63,73642.8,-0.49,-2.75,-2.71,0,*6B
1494014752.93,47046,15.63,73640.5,-0.49,-2.83,-2.71,0,*61
1494014754.15,47047,15.63,73640.3,-0.49,-2.83,-2.71,0,*60
1494014755.39,47048,15.63,73642.3,-0.51,-2.83,-2.59,0,*6C
1494014756.64,47049,15.63,73642.8,-0.49,-2.71,-2.51,0,*61
1494014757.85,47050,15.63,73642.0,-0.49,-2.59,-2.39,0,*6D
1494014759.09,47051,15.63,73644.0,-0.51,-2.59,-2.35,0,*69
1494014760.33,47052,15.63,73638.5,-0.51,-2.59,-2.23,0,*6D
1494014761.54,47053,15.63,73642.5,-0.51,-2.39,-2.27,0,*6E
1494014762.75,47054,15.63,73636.3,-0.51,-2.27,-2.15,0,*67
1494014764.02,47055,15.63,73636.5,-0.51,-2.07,-2.11,0,*60
1494014765.27,47056,15.63,73634.8,-0.49,-1.95,-1.99,0,*61
1494014766.52,47057,15.63,73634.5,-0.49,-1.83,-1.83,0,*6C
1494014767.76,47058,15.63,73628.3,-0.51,-1.75,-1.83,0,*63
1494014768.98,47059,15.63,73632.3,-0.51,-1.71,-1.63,0,*68
1494014770.2,47060,15.63,73634.3,-0.51,-1.71,-1.71,0,*61
1494014771.42,47061,15.63,73632.8,-0.51,-1.63,-1.51,0,*61
1494014772.63,47062,15.63,73632.3,-0.51,-1.59,-1.59,0,*63
1494014773.84,47063,15.63,73628.3,-0.51,-1.51,-1.51,0,*62
1494014775.08,47064,15.63,73630.0,-0.51,-1.59,-1.47,0,*6A
1494014776.31,47065,15.63,73630.3,-0.51,-1.59,-1.47,0,*6B
1494014777.52,47066,15.63,73624.8,-0.51,-1.59,-1.59,0,*67
1494014778.75,47067,15.63,73632.0,-0.51,-1.71,-1.63,0,*65
1494014779.96,47068,15.63,73636.0,-0.51,-1.63,-1.63,0,*69
1494014781.2,47069,15.63,73636.5,-0.51,-1.83,-1.75,0,*61
1494014782.45,47070,15.63,73636.5,-0.51,-1.83,-1.75,0,*69
1494014783.71,47071,15.63,73638.8,-0.51,-1.95,-1.83,0,*66
1494014784.99,47072,15.63,73638.0,-0.51,-1.99,-1.87,0,*6D
1494014786.26,47073,15.63,73636.5,-0.51,-1.99,-1.83,0,*68
1494014787.51,47074,15.63,73638.3,-0.51,-1.99,-1.75,0,*66
1494014788.75,47075,15.63,73638.0,-0.51,-1.99,-1.75,0,*67
1494014790.0,47076,15.63,73638.5,-0.51,-1.87,-1.75,0,*6B
1494014791.24,47077,15.63,73638.5,-0.51,-1.95,-1.75,0,*69
1494014792.48,47078,15.63,73634.8,-0.51,-1.95,-1.75,0,*66
1494014793.72,47079,15.63,73634.8,-0.49,-1.95,-1.83,0,*67
1494014794.99,47080,15.63,73636.8,-0.51,-1.99,-1.87,0,*60
1494014796.26,47081,15.63,73636.0,-0.51,-1.99,-1.83,0,*65
1494014797.51,47082,15.63,73632.0,-0.49,-1.95,-1.83,0,*63
1494014798.78,47083,15.63,73642.0,-0.51,-1.87,-1.83,0,*68
1494014800.05,47084,15.63,73636.0,-0.51,-1.83,-1.83,0,*6B
1494014801.31,47085,15.63,73642.3,-0.51,-1.83,-1.95,0,*6D
1494014802.58,47086,15.63,73636.8,-0.51,-1.87,-1.87,0,*69
1494014803.84,47087,15.63,73638.8,-0.51,-1.95,-1.87,0,*6B
1494014805.11,47088,15.63,73642.0,-0.51,-1.95,-1.87,0,*64
1494014806.33,47089,15.63,73636.3,-0.49,-1.99,-1.75,0,*6D
1494014807.58,47090,15.63,73644.0,-0.51,-1.99,-1.71,0,*68
1494014808.83,47091,15.63,73636.3,-0.51,-1.95,-1.71,0,*65
1494014810.07,47092,15.63,73642.8,-0.51,-1.87,-1.63,0,*66
1494014811.29,47093,15.63,73644.8,-0.51,-1.75,-1.51,0,*6B
1494014812.5,47094,15.63,73644.3,-0.51,-1.75,-1.51,0,*6C
1494014813.75,47095,15.63,73646.3,-0.51,-1.71,-1.47,0,*6E
1494014814.99,47096,15.63,73644.3,-0.51,-1.51,-1.47,0,*6F
1494014816.23,47097,15.63,73644.8,-0.49,-1.47,-1.39,0,*69
1494014817.48,47098,15.63,73644.8,-0.49,-1.39,-1.35,0,*63
1494014818.7,47099,15.63,73648.8,-0.49,-1.35,-1.29,0,*63
1494014819.92,47100,15.63,73644.3,-0.49,-1.35,-1.29,0,*62
1494014821.17,47101,15.63,73640.0,-0.49,-1.47,-1.35,0,*6B
1494014822.41,47102,15.63,73646.8,-0.49,-1.47,-1.35,0,*68
1494014823.66,47103,15.63,73646.0,-0.49,-1.47,-1.35,0,*69
1494014824.87,47104,15.63,73642.0,-0.49,-1.51,-1.35,0,*69
1494014826.12,47105,15.63,73640.5,-0.49,-1.47,-1.35,0,*6F
1494014827.34,47106,15.63,73642.0,-0.49,-1.39,-1.29,0,*68
1494014828.57,47107,15.63,73642.5,-0.49,-1.39,-1.29,0,*69
1494014829.82,47108,15.63,73646.0,-0.49,-1.39,-1.35,0,*6B
1494014831.06,47109,15.63,73646.0,-0.49,-1.35,-1.35,0,*66
1494014832.28,47110,15.63,73636.5,-0.49,-1.35,-1.29,0,*63
1494014833.5,47111,15.63,73638.0,-0.49,-1.29,-1.35,0,*62
1494014834.7,47112,15.63,73636.8,-0.49,-1.29,-1.29,0,*6C
1494014835.91,47113,15.63,73632.0,-0.49,-1.35,-1.29,0,*60
1494014837.13,47114,15.63,73630.8,-0.49,-1.35,-1.29,0,*67
1494014838.38,47115,15.63,73626.8,-0.49,-1.35,-1.35,0,*6B
1494014839.64,47116,15.63,73628.5,-0.47,-1.35,-1.43,0,*67
1494014840.9,47117,15.63,73630.5,-0.47,-1.43,-1.43,0,*67
1494014842.17,47118,15.63,73632.8,-0.47,-1.43,-1.43,0,*68
1494014843.44,47119,15.63,73632.0,-0.47,-1.47,-1.35,0,*6C
1494014844.7,47120,15.63,73632.5,-0.47,-1.43,-1.47,0,*67
1494014845.95,47121,15.63,73634.3,-0.45,-1.43,-1.47,0,*64
1494014847.21,47122,15.63,73634.0,-0.47,-1.35,-1.47,0,*64
1494014848.48,47123,15.63,73634.0,-0.47,-1.43,-1.47,0,*64
1494014849.67,47124,15.63,73628.0,-0.49,-1.51,-1.51,0,*69
1494014850.85,47125,15.63,73632.5,-0.49,-1.59,-1.59,0,*68
1494014852.04,47126,15.63,73628.8,-0.49,-1.59,-1.63,0,*62
1494014853.25,47127,15.63,73628.8,-0.51,-1.59,-1.63,0,*6A
1494014854.44,47128,15.63,73624.3,-0.49,-1.51,-1.71,0,*67
1494014855.64,47129,15.63,73622.8,-0.49,-1.59,-1.71,0,*6E
1494014856.83,47130,15.63,73628.5,-0.49,-1.59,-1.63,0,*65
1494014858.03,47131,15.63,73630.5,-0.51,-1.59,-1.59,0,*64
1494014859.24,47132,15.63,73628.0,-0.51,-1.51,-1.59,0,*6F
1494014860.43,47133,15.63,73628.3,-0.49,-1.51,-1.51,0,*6F
1494014861.65,47134,15.63,73630.0,-0.49,-1.47,-1.51,0,*6F
1494014862.9,47135,15.63,73624.0,-0.51,-1.47,-1.51,0,*67
1494014864.12,47136,15.63,73624.5,-0.49,-1.47,-1.51,0,*6D
1494014865.39,47137,15.63,73626.5,-0.51,-1.47,-1.39,0,*6B
1494014866.66,47138,15.63,73628.3,-0.51,-1.47,-1.47,0,*6D
1494014867.87,47139,15.63,73630.3,-0.51,-1.51,-1.51,0,*6C
1494014869.06,47140,15.63,73628.0,-0.49,-1.59,-1.51,0,*63
1494014870.28,47141,15.63,73630.5,-0.49,-1.39,-1.51,0,*64
1494014871.5,47142,15.63,73630.5,-0.49,-1.47,-1.51,0,*6E
1494014872.72,47143,15.63,73624.8,-0.49,-1.47,-1.51,0,*6F
1494014873.99,47144,15.63,73630.8,-0.51,-1.47,-1.47,0,*66
1494014875.26,47145,15.63,73632.5,-0.51,-1.35,-1.47,0,*62
1494014876.51,47146,15.63,73636.8,-0.49,-1.39,-1.47,0,*64
1494014877.78,47147,15.63,73636.0,-0.51,-1.35,-1.47,0,*60
1494014879.02,47148,15.63,73634.8,-0.49,-1.35,-1.47,0,*66
1494014880.29,47149,15.63,73636.5,-0.51,-1.35,-1.39,0,*67
1494014881.54,47150,15.63,73634.5,-0.51,-1.29,-1.39,0,*62
1494014882.79,47151,15.63,73638.5,-0.51,-1.29,-1.39,0,*63
1494014884.05,47152,15.63,73640.3,-0.51,-1.35,-1.47,0,*64
1494014885.3,47153,15.63,73636.8,-0.49,-1.35,-1.39,0,*65
1494014886.54,47154,15.63,73632.5,-0.49,-1.35,-1.47,0,*6B
1494014887.77,47155,15.63,73638.8,-0.49,-1.29,-1.35,0,*62
1494014889.01,47156,15.63,73636.5,-0.49,-1.35,-1.35,0,*6C
1494014890.25,47157,15.63,73638.0,-0.49,-1.35,-1.35,0,*6D
1494014891.5,47158,15.63,73634.3,-0.51,-1.29,-1.35,0,*66
1494014892.72,47159,15.63,73632.0,-0.49,-1.29,-1.35,0,*6E
1494014893.94,47160,15.63,73632.8,-0.49,-1.35,-1.29,0,*64
1494014895.21,47161,15.63,73632.8,-0.51,-1.39,-1.39,0,*61
1494014896.49,47162,15.63,73634.5,-0.51,-1.39,-1.47,0,*6B
1494014897.74,47163,15.63,73634.0,-0.49,-1.39,-1.47,0,*63
1494014898.93,47164,15.63,73630.5,-0.49,-1.51,-1.51,0,*6D
1494014900.11,47165,15.63,73634.8,-0.49,-1.59,-1.59,0,*6C
1494014901.32,47166,15.63,73636.0,-0.51,-1.59,-1.59,0,*66
1494014902.51,47167,15.63,73632.5,-0.49,-1.59,-1.59,0,*6E
1494014903.72,47168,15.63,73638.8,-0.51,-1.51,-1.51,0,*68
1494014904.93,47169,15.63,73636.5,-0.51,-1.51,-1.51,0,*69
1494014906.12,47170,15.63,73638.0,-0.49,-1.51,-1.59,0,*60
1494014907.32,47171,15.63,73642.0,-0.51,-1.59,-1.59,0,*60